| time (UTC) | temp F | wind direction | speed MPH | gust MPH | rain 1hr in | rain 24hr in | rain mn in | humidity % | barometer mb |
| 20260506172546 | 68 | 104 | 2.0 | 17.0 | 0.00 | 0.00 | 0.00 | 75 | 1006.9 |
| 20260506172104 | 68 | 168 | 5.0 | 16.0 | 0.00 | 0.00 | 0.00 | 75 | 1007.1 |
| 20260506171603 | 68 | 107 | 2.0 | 15.0 | 0.00 | 0.00 | 0.00 | 75 | 1007.1 |
| 20260506171001 | 68 | 142 | 0.0 | 10.0 | 0.00 | 0.00 | 0.00 | 76 | 1007.2 |
| 20260506170517 | 68 | 104 | 2.0 | 10.0 | 0.00 | 0.00 | 0.00 | 76 | 1007.2 |
| 20260506170030 | 68 | 117 | 3.0 | 10.0 | 0.00 | 0.00 | 0.00 | 75 | 1007.4 |
| 20260506165548 | 68 | 179 | 2.0 | 11.0 | 0.00 | 0.00 | 0.00 | 76 | 1007.2 |
| 20260506165103 | 69 | 163 | 2.0 | 15.0 | 0.00 | 0.00 | 0.00 | 77 | 1007.1 |
| 20260506164604 | 69 | 179 | 4.0 | 15.0 | 0.00 | 0.00 | 0.00 | 77 | 1007.3 |
| 20260506164103 | 69 | 123 | 1.0 | 8.0 | 0.00 | 0.00 | 0.00 | 77 | 1007.5 |
| 20260506163520 | 69 | 103 | 1.0 | 10.0 | 0.00 | 0.00 | 0.00 | 73 | 1007.5 |
| 20260506163041 | 69 | 180 | 2.0 | 11.0 | 0.00 | 0.00 | 0.00 | 72 | 1007.7 |
| 20260506162546 | 69 | 123 | 3.0 | 11.0 | 0.00 | 0.00 | 0.00 | 72 | 1007.8 |
| 20260506162059 | 69 | 223 | 3.0 | 6.0 | 0.00 | 0.00 | 0.00 | 72 | 1008.1 |
| 20260506161604 | 69 | 230 | 0.0 | 8.0 | 0.00 | 0.00 | 0.00 | 72 | 1008.2 |
| 20260506161011 | 69 | 111 | 0.0 | 10.0 | 0.00 | 0.00 | 0.00 | 72 | 1008.4 |
| 20260506160532 | 69 | 157 | 1.0 | 10.0 | 0.00 | 0.00 | 0.00 | 71 | 1008.4 |
| 20260506160043 | 69 | 220 | 3.0 | 10.0 | 0.00 | 0.00 | 0.00 | 70 | 1008.5 |
| 20260506155600 | 69 | 176 | 1.0 | 14.0 | 0.00 | 0.00 | 0.00 | 71 | 1008.3 |
| 20260506155058 | 69 | 159 | 0.0 | 14.0 | 0.00 | 0.00 | 0.00 | 70 | 1008.4 |
| 20260506154607 | 69 | 103 | 0.0 | 9.0 | 0.00 | 0.00 | 0.00 | 71 | 1008.4 |
| 20260506154017 | 69 | 154 | 1.0 | 11.0 | 0.00 | 0.00 | 0.00 | 70 | 1008.4 |
| 20260506153525 | 69 | 169 | 1.0 | 9.0 | 0.00 | 0.00 | 0.00 | 69 | 1008.3 |
| 20260506153042 | 69 | 96 | 1.0 | 6.0 | 0.00 | 0.00 | 0.00 | 69 | 1008.3 |
| 20260506152556 | 69 | 155 | 1.0 | 18.0 | 0.00 | 0.00 | 0.00 | 68 | 1008.4 |
| 20260506152058 | 69 | 204 | 3.0 | 18.0 | 0.00 | 0.00 | 0.00 | 69 | 1008.4 |
| 20260506151601 | 69 | 169 | 1.0 | 14.0 | 0.00 | 0.00 | 0.00 | 68 | 1008.5 |
| 20260506151012 | 70 | 209 | 0.0 | 14.0 | 0.00 | 0.00 | 0.00 | 68 | 1008.4 |
| 20260506150528 | 69 | 208 | 1.0 | 14.0 | 0.00 | 0.00 | 0.00 | 68 | 1008.5 |
| 20260506150044 | 70 | 204 | 2.0 | 12.0 | 0.00 | 0.00 | 0.00 | 67 | 1008.4 |
| 20260506145547 | 69 | 136 | 1.0 | 10.0 | 0.00 | 0.00 | 0.00 | 67 | 1008.5 |
| 20260506145105 | 69 | 193 | 1.0 | 10.0 | 0.00 | 0.00 | 0.00 | 68 | 1008.4 |
| 20260506144602 | 69 | 165 | 1.0 | 9.0 | 0.00 | 0.00 | 0.00 | 68 | 1008.5 |
| 20260506144103 | 69 | 212 | 1.0 | 10.0 | 0.00 | 0.00 | 0.00 | 67 | 1008.6 |
| 20260506143516 | 69 | 194 | 0.0 | 12.0 | 0.00 | 0.00 | 0.00 | 67 | 1008.6 |
| 20260506143030 | 69 | 113 | 3.0 | 12.0 | 0.00 | 0.00 | 0.00 | 67 | 1008.6 |
| 20260506142545 | 70 | 111 | 3.0 | 9.0 | 0.00 | 0.00 | 0.00 | 67 | 1008.6 |
| 20260506142100 | 70 | 220 | 2.0 | 10.0 | 0.00 | 0.00 | 0.00 | 66 | 1008.5 |
| 20260506141602 | 70 | 165 | 1.0 | 14.0 | 0.00 | 0.00 | 0.00 | 67 | 1008.5 |
| 20260506141103 | 70 | 150 | 4.0 | 14.0 | 0.00 | 0.00 | 0.00 | 66 | 1008.6 |
| 20260506140520 | 70 | 184 | 2.0 | 10.0 | 0.00 | 0.00 | 0.00 | 66 | 1008.5 |
| 20260506140037 | 70 | 150 | 0.0 | 10.0 | 0.00 | 0.00 | 0.00 | 67 | 1008.3 |
| 20260506135544 | 69 | 221 | 0.0 | 13.0 | 0.00 | 0.00 | 0.00 | 67 | 1008.2 |
| 20260506135059 | 69 | 212 | 3.0 | 13.0 | 0.00 | 0.00 | 0.00 | 67 | 1008.2 |
| 20260506134601 | 69 | 132 | 2.0 | 9.0 | 0.00 | 0.00 | 0.00 | 67 | 1008.3 |
| 20260506134013 | 69 | 106 | 1.0 | 12.0 | 0.00 | 0.00 | 0.00 | 67 | 1008.3 |
| 20260506133531 | 69 | 202 | 2.0 | 18.0 | 0.00 | 0.00 | 0.00 | 67 | 1008.2 |
| 20260506133045 | 69 | 117 | 3.0 | 18.0 | 0.00 | 0.00 | 0.00 | 67 | 1008.2 |
| 20260506132546 | 70 | 160 | 1.0 | 14.0 | 0.00 | 0.00 | 0.00 | 67 | 1008.3 |
| 20260506132049 | 70 | 154 | 2.0 | 10.0 | 0.00 | 0.00 | 0.00 | 67 | 1008.3 |
| 20260506131549 | 70 | 145 | 0.0 | 19.0 | 0.00 | 0.00 | 0.00 | 68 | 1008.5 |
| 20260506131102 | 70 | 177 | 2.0 | 16.0 | 0.00 | 0.00 | 0.00 | 68 | 1008.7 |
| 20260506130518 | 70 | 120 | 4.0 | 16.0 | 0.00 | 0.00 | 0.00 | 67 | 1008.6 |
| 20260506130028 | 69 | 142 | 2.0 | 13.0 | 0.00 | 0.00 | 0.00 | 69 | 1008.7 |
| 20260506125525 | 69 | 165 | 3.0 | 14.0 | 0.00 | 0.00 | 0.00 | 69 | 1008.7 |
| 20260506125040 | 69 | 88 | 1.0 | 10.0 | 0.00 | 0.00 | 0.00 | 70 | 1008.8 |
| 20260506124559 | 69 | 159 | 0.0 | 7.0 | 0.00 | 0.00 | 0.00 | 70 | 1008.7 |
| 20260506124009 | 68 | 109 | 1.0 | 15.0 | 0.00 | 0.00 | 0.00 | 72 | 1008.7 |
| 20260506123522 | 68 | 178 | 1.0 | 8.0 | 0.00 | 0.00 | 0.00 | 72 | 1008.5 |
| 20260506123022 | 68 | 109 | 0.0 | 11.0 | 0.00 | 0.00 | 0.00 | 72 | 1008.5 |
| 20260506122537 | 67 | 168 | 2.0 | 13.0 | 0.00 | 0.00 | 0.00 | 72 | 1008.6 |
| 20260506122053 | 67 | 166 | 0.0 | 13.0 | 0.00 | 0.00 | 0.00 | 73 | 1008.7 |
| 20260506121506 | 66 | 161 | 1.0 | 14.0 | 0.00 | 0.00 | 0.00 | 74 | 1008.7 |
| 20260506121022 | 66 | 134 | 2.0 | 10.0 | 0.00 | 0.00 | 0.00 | 74 | 1008.7 |
| 20260506120538 | 66 | 146 | 0.0 | 5.0 | 0.00 | 0.00 | 0.00 | 75 | 1008.7 |
| 20260506120109 | 66 | 187 | 0.0 | 10.0 | 0.00 | 0.00 | 0.00 | 75 | 1008.7 |
| 20260506115555 | 66 | 146 | 1.0 | 10.0 | 0.00 | 0.00 | 0.00 | 75 | 1008.8 |
| 20260506115056 | 65 | 107 | 0.0 | 8.0 | 0.00 | 0.00 | 0.00 | 76 | 1008.7 |
| 20260506114508 | 65 | 82 | 1.0 | 7.0 | 0.00 | 0.00 | 0.00 | 76 | 1008.7 |
| 20260506114022 | 65 | 159 | 1.0 | 9.0 | 0.00 | 0.00 | 0.00 | 76 | 1008.8 |
| 20260506113538 | 65 | 128 | 0.0 | 9.0 | 0.00 | 0.00 | 0.00 | 77 | 1008.7 |
| 20260506113054 | 65 | 157 | 1.0 | 10.0 | 0.00 | 0.00 | 0.00 | 77 | 1008.7 |
| 20260506112559 | 64 | 119 | 1.0 | 12.0 | 0.00 | 0.00 | 0.00 | 78 | 1008.7 |
| 20260506112007 | 64 | 115 | 0.0 | 12.0 | 0.00 | 0.00 | 0.00 | 78 | 1008.7 |
| 20260506111526 | 64 | 89 | 0.0 | 7.0 | 0.00 | 0.00 | 0.00 | 79 | 1008.8 |
| 20260506111041 | 64 | 125 | 0.0 | 7.0 | 0.00 | 0.00 | 0.00 | 79 | 1008.9 |
| 20260506110554 | 63 | 178 | 0.0 | 10.0 | 0.00 | 0.00 | 0.00 | 79 | 1008.8 |
| 20260506110008 | 63 | 106 | 1.0 | 10.0 | 0.00 | 0.00 | 0.00 | 79 | 1008.8 |
| 20260506105523 | 63 | 177 | 1.0 | 6.0 | 0.00 | 0.00 | 0.00 | 80 | 1008.8 |
| 20260506105039 | 63 | 115 | 1.0 | 5.0 | 0.00 | 0.00 | 0.00 | 80 | 1008.7 |
| 20260506104557 | 63 | 84 | 1.0 | 11.0 | 0.00 | 0.00 | 0.00 | 80 | 1008.7 |
| 20260506104057 | 63 | 115 | 1.0 | 11.0 | 0.00 | 0.00 | 0.00 | 80 | 1008.8 |
| 20260506103509 | 63 | 190 | 0.0 | 4.0 | 0.00 | 0.00 | 0.00 | 80 | 1008.8 |
| 20260506103023 | 63 | 124 | 0.0 | 6.0 | 0.00 | 0.00 | 0.00 | 80 | 1008.9 |
| 20260506102537 | 63 | 181 | 2.0 | 6.0 | 0.00 | 0.00 | 0.00 | 80 | 1008.9 |
| 20260506102052 | 63 | 157 | 0.0 | 6.0 | 0.00 | 0.00 | 0.00 | 81 | 1009.0 |
| 20260506101503 | 63 | 167 | 0.0 | 5.0 | 0.00 | 0.00 | 0.00 | 81 | 1008.8 |
| 20260506101008 | 63 | 91 | 0.0 | 5.0 | 0.00 | 0.00 | 0.00 | 81 | 1008.8 |
| 20260506100520 | 63 | 158 | 2.0 | 5.0 | 0.00 | 0.00 | 0.00 | 81 | 1008.8 |
| 20260506100039 | 63 | 200 | 0.0 | 3.0 | 0.00 | 0.00 | 0.00 | 81 | 1008.7 |
| 20260506095550 | 63 | 171 | 0.0 | 5.0 | 0.00 | 0.00 | 0.00 | 81 | 1008.7 |
| 20260506095002 | 63 | 162 | 1.0 | 5.0 | 0.00 | 0.00 | 0.00 | 81 | 1008.6 |
| 20260506094520 | 63 | 175 | 0.0 | 3.0 | 0.00 | 0.00 | 0.00 | 81 | 1008.6 |
| 20260506094039 | 63 | 85 | 0.0 | 3.0 | 0.00 | 0.00 | 0.00 | 81 | 1008.6 |
| 20260506093550 | 63 | 152 | 0.0 | 6.0 | 0.00 | 0.00 | 0.00 | 81 | 1008.6 |
| 20260506093006 | 63 | 125 | 1.0 | 7.0 | 0.00 | 0.00 | 0.00 | 81 | 1008.5 |
| 20260506092503 | 63 | 156 | 1.0 | 8.0 | 0.00 | 0.00 | 0.00 | 81 | 1008.4 |
| 20260506092019 | 63 | 108 | 2.0 | 8.0 | 0.00 | 0.00 | 0.00 | 82 | 1008.5 |
| 20260506091534 | 63 | 134 | 0.0 | 6.0 | 0.00 | 0.00 | 0.00 | 82 | 1008.6 |
| 20260506091050 | 63 | 77 | 1.0 | 7.0 | 0.00 | 0.00 | 0.00 | 82 | 1008.7 |
| 20260506090503 | 63 | 122 | 2.0 | 7.0 | 0.00 | 0.00 | 0.00 | 82 | 1008.7 |
| 20260506090020 | 63 | 156 | 0.0 | 6.0 | 0.00 | 0.00 | 0.00 | 82 | 1008.8 |
| 20260506085537 | 63 | 99 | 1.0 | 6.0 | 0.00 | 0.00 | 0.00 | 82 | 1008.7 |
| 20260506085053 | 63 | 102 | 0.0 | 6.0 | 0.00 | 0.00 | 0.00 | 82 | 1008.8 |
| 20260506084511 | 63 | 100 | 0.0 | 6.0 | 0.00 | 0.00 | 0.00 | 82 | 1008.8 |
| 20260506084007 | 64 | 82 | 0.0 | 5.0 | 0.00 | 0.00 | 0.00 | 82 | 1008.9 |
| 20260506083523 | 64 | 148 | 0.0 | 3.0 | 0.00 | 0.00 | 0.00 | 82 | 1008.9 |
| 20260506083041 | 64 | 150 | 0.0 | 4.0 | 0.00 | 0.00 | 0.00 | 82 | 1008.9 |
| 20260506082559 | 64 | 138 | 0.0 | 4.0 | 0.00 | 0.00 | 0.00 | 82 | 1009.0 |
| 20260506082012 | 64 | 125 | 0.0 | 4.0 | 0.00 | 0.00 | 0.00 | 82 | 1009.0 |
| 20260506081525 | 64 | 108 | 0.0 | 4.0 | 0.00 | 0.00 | 0.00 | 82 | 1009.0 |
| 20260506081040 | 64 | 143 | 0.0 | 4.0 | 0.00 | 0.00 | 0.00 | 82 | 1009.0 |
| 20260506080558 | 64 | 76 | 0.0 | 3.0 | 0.00 | 0.00 | 0.00 | 82 | 1009.0 |
| 20260506073507 | 64 | 122 | 0.0 | 6.0 | 0.00 | 0.00 | 0.00 | 81 | 1008.8 |
| 20260506073019 | 64 | 186 | 1.0 | 7.0 | 0.00 | 0.00 | 0.00 | 81 | 1008.9 |
| 20260506072535 | 64 | 171 | 1.0 | 7.0 | 0.00 | 0.00 | 0.00 | 81 | 1008.9 |
| 20260506072054 | 64 | 83 | 0.0 | 6.0 | 0.00 | 0.00 | 0.00 | 81 | 1008.9 |
| 20260506071506 | 64 | 119 | 0.0 | 6.0 | 0.00 | 0.00 | 0.00 | 81 | 1009.0 |
| 20260506071003 | 64 | 140 | 0.0 | 4.0 | 0.00 | 0.00 | 0.00 | 81 | 1009.0 |
| 20260506070519 | 64 | 86 | 0.0 | 4.0 | 0.00 | 0.00 | 0.00 | 81 | 1009.1 |
| 20260506062011 | 65 | 86 | 0.0 | 1.0 | 0.00 | 0.00 | 0.00 | 80 | 1009.1 |
| 20260506061524 | 65 | 90 | 0.0 | 3.0 | 0.00 | 0.00 | 0.00 | 79 | 1009.1 |
| 20260506061041 | 65 | 93 | 0.0 | 9.0 | 0.00 | 0.00 | 0.00 | 79 | 1009.1 |
| 20260506060557 | 65 | 107 | 0.0 | 9.0 | 0.00 | 0.00 | 0.00 | 79 | 1009.1 |
| 20260506051102 | 66 | 140 | 1.0 | 8.0 | 0.00 | 0.00 | 0.00 | 77 | 1009.5 |
| 20260506050603 | 66 | 136 | 0.0 | 3.0 | 0.00 | 0.00 | 0.00 | 77 | 1009.6 |
| 20260506045050 | 67 | 162 | 0.0 | 6.0 | 0.00 | 0.00 | 0.00 | 76 | 1009.6 |
| 20260506044556 | 67 | 82 | 1.0 | 6.0 | 0.00 | 0.00 | 0.00 | 76 | 1009.7 |
| 20260506044051 | 67 | 134 | 2.0 | 6.0 | 0.00 | 0.00 | 0.00 | 76 | 1009.6 |
| 20260506043503 | 67 | 123 | 0.0 | 4.0 | 0.00 | 0.00 | 0.00 | 76 | 1009.7 |
| 20260506043018 | 67 | 177 | 0.0 | 4.0 | 0.00 | 0.00 | 0.00 | 75 | 1009.7 |
| 20260506042535 | 67 | 131 | 0.0 | 8.0 | 0.00 | 0.00 | 0.00 | 75 | 1009.7 |
| 20260506042037 | 67 | 104 | 0.0 | 7.0 | 0.00 | 0.00 | 0.00 | 75 | 1009.5 |
| 20260506041605 | 67 | 102 | 2.0 | 7.0 | 0.00 | 0.00 | 0.00 | 75 | 1009.6 |
| 20260506041054 | 67 | 128 | 0.0 | 8.0 | 0.00 | 0.00 | 0.00 | 75 | 1009.6 |
| 20260506040506 | 67 | 190 | 1.0 | 8.0 | 0.00 | 0.00 | 0.00 | 75 | 1009.5 |
| 20260506040021 | 67 | 177 | 0.0 | 6.0 | 0.00 | 0.00 | 0.00 | 75 | 1009.4 |
| 20260506035537 | 67 | 79 | 1.0 | 8.0 | 0.00 | 0.00 | 0.00 | 74 | 1009.4 |
| 20260506035053 | 67 | 151 | 1.0 | 16.0 | 0.00 | 0.00 | 0.00 | 74 | 1009.5 |
| 20260506034507 | 67 | 126 | 0.0 | 7.0 | 0.00 | 0.00 | 0.00 | 74 | 1009.5 |
| 20260506034023 | 67 | 148 | 2.0 | 11.0 | 0.00 | 0.00 | 0.00 | 74 | 1009.5 |
| 20260506033539 | 67 | 126 | 3.0 | 11.0 | 0.00 | 0.00 | 0.00 | 74 | 1009.6 |
| 20260506033056 | 67 | 124 | 0.0 | 6.0 | 0.00 | 0.00 | 0.00 | 73 | 1009.5 |
| 20260506032556 | 67 | 130 | 0.0 | 8.0 | 0.00 | 0.00 | 0.00 | 73 | 1009.6 |
| 20260506032056 | 67 | 154 | 3.0 | 8.0 | 0.00 | 0.00 | 0.00 | 73 | 1009.7 |
| 20260506031509 | 68 | 162 | 0.0 | 13.0 | 0.00 | 0.00 | 0.00 | 73 | 1009.7 |
| 20260506031025 | 68 | 145 | 0.0 | 13.0 | 0.00 | 0.00 | 0.00 | 72 | 1009.7 |
| 20260506030543 | 68 | 89 | 0.0 | 12.0 | 0.00 | 0.00 | 0.00 | 72 | 1009.8 |
| 20260506030042 | 68 | 112 | 0.0 | 9.0 | 0.00 | 0.00 | 0.00 | 72 | 1009.7 |
| 20260506025559 | 68 | 135 | 0.0 | 8.0 | 0.00 | 0.00 | 0.00 | 71 | 1009.7 |
| 20260506025101 | 68 | 192 | 2.0 | 8.0 | 0.00 | 0.00 | 0.00 | 71 | 1009.6 |
| 20260506024613 | 68 | 158 | 0.0 | 7.0 | 0.00 | 0.00 | 0.00 | 71 | 1009.7 |
| 20260506024015 | 68 | 120 | 1.0 | 7.0 | 0.00 | 0.00 | 0.00 | 70 | 1009.7 |
| 20260506023533 | 68 | 115 | 2.0 | 11.0 | 0.00 | 0.00 | 0.00 | 70 | 1009.7 |
| 20260506023053 | 69 | 115 | 1.0 | 5.0 | 0.00 | 0.00 | 0.00 | 69 | 1009.8 |
| 20260506022546 | 69 | 167 | 0.0 | 7.0 | 0.00 | 0.00 | 0.00 | 69 | 1009.7 |
| 20260506022048 | 69 | 98 | 0.0 | 11.0 | 0.00 | 0.00 | 0.00 | 68 | 1009.7 |
| 20260506021502 | 69 | 166 | 3.0 | 11.0 | 0.00 | 0.00 | 0.00 | 68 | 1009.7 |
| 20260506021017 | 69 | 96 | 1.0 | 7.0 | 0.00 | 0.00 | 0.00 | 67 | 1009.7 |
| 20260506020534 | 69 | 98 | 1.0 | 7.0 | 0.00 | 0.00 | 0.00 | 67 | 1009.6 |
| 20260506020116 | 69 | 153 | 2.0 | 6.0 | 0.00 | 0.00 | 0.00 | 66 | 1009.8 |
| 20260506015502 | 70 | 125 | 0.0 | 13.0 | 0.00 | 0.00 | 0.00 | 66 | 1009.6 |
| 20260506015005 | 70 | 101 | 0.0 | 11.0 | 0.00 | 0.00 | 0.00 | 65 | 1009.5 |
| 20260506014507 | 70 | 118 | 0.0 | 11.0 | 0.00 | 0.00 | 0.00 | 64 | 1009.6 |
| 20260506014020 | 70 | 114 | 1.0 | 6.0 | 0.00 | 0.00 | 0.00 | 64 | 1009.4 |
| 20260506013534 | 70 | 130 | 0.0 | 7.0 | 0.00 | 0.00 | 0.00 | 63 | 1009.4 |
| 20260506013050 | 70 | 97 | 0.0 | 7.0 | 0.00 | 0.00 | 0.00 | 63 | 1009.4 |
| 20260506012504 | 70 | 133 | 1.0 | 7.0 | 0.00 | 0.00 | 0.00 | 63 | 1009.3 |
| 20260506012021 | 71 | 147 | 0.0 | 7.0 | 0.00 | 0.00 | 0.00 | 62 | 1009.3 |
| 20260506011539 | 71 | 127 | 0.0 | 3.0 | 0.00 | 0.00 | 0.00 | 62 | 1009.2 |
| 20260506011055 | 71 | 104 | 0.0 | 6.0 | 0.00 | 0.00 | 0.00 | 62 | 1009.2 |
| 20260506010553 | 71 | 76 | 1.0 | 6.0 | 0.00 | 0.00 | 0.00 | 62 | 1009.1 |
| 20260506010057 | 71 | 124 | 1.0 | 6.0 | 0.00 | 0.00 | 0.00 | 62 | 1009.1 |
| 20260506005512 | 71 | 121 | 0.0 | 6.0 | 0.00 | 0.00 | 0.00 | 62 | 1009.1 |
| 20260506005024 | 71 | 107 | 0.0 | 4.0 | 0.00 | 0.00 | 0.00 | 62 | 1009.1 |
| 20260506004543 | 71 | 69 | 0.0 | 4.0 | 0.00 | 0.00 | 0.00 | 62 | 1009.0 |
| 20260506004041 | 71 | 106 | 0.0 | 7.0 | 0.00 | 0.00 | 0.00 | 62 | 1008.9 |
| 20260506003558 | 71 | 123 | 1.0 | 7.0 | 0.00 | 0.00 | 0.00 | 62 | 1008.8 |
| 20260506003059 | 71 | 130 | 0.0 | 6.0 | 0.00 | 0.00 | 0.00 | 62 | 1008.8 |
| 20260506002512 | 72 | 92 | 0.0 | 11.0 | 0.00 | 0.00 | 0.00 | 62 | 1008.8 |
| 20260506002030 | 72 | 88 | 0.0 | 11.0 | 0.00 | 0.00 | 0.00 | 61 | 1008.8 |
| 20260506001556 | 72 | 90 | 0.0 | 4.0 | 0.00 | 0.00 | 0.00 | 61 | 1008.8 |
| 20260506001103 | 72 | 102 | 0.0 | 9.0 | 0.00 | 0.00 | 0.00 | 61 | 1008.8 |
| 20260506000516 | 73 | 148 | 1.0 | 10.0 | 0.00 | 0.00 | 0.00 | 60 | 1008.7 |
| 20260506000050 | 73 | 124 | 1.0 | 16.0 | 0.00 | 0.00 | 0.00 | 59 | 1008.7 |
| 20260505235547 | 73 | 175 | 2.0 | 16.0 | 0.00 | 0.00 | 0.00 | 59 | 1008.6 |
| 20260505235104 | 73 | 116 | 1.0 | 6.0 | 0.00 | 0.00 | 0.00 | 58 | 1008.7 |
| 20260505234502 | 74 | 100 | 0.0 | 10.0 | 0.00 | 0.00 | 0.00 | 57 | 1008.6 |
| 20260505234001 | 74 | 120 | 0.0 | 9.0 | 0.00 | 0.00 | 0.00 | 56 | 1008.6 |
| 20260505233518 | 74 | 89 | 0.0 | 2.0 | 0.00 | 0.00 | 0.00 | 55 | 1008.4 |
| 20260505233033 | 75 | 118 | 0.0 | 4.0 | 0.00 | 0.00 | 0.00 | 54 | 1008.3 |
| 20260505232549 | 75 | 107 | 1.0 | 6.0 | 0.00 | 0.00 | 0.00 | 53 | 1008.2 |
| 20260505232104 | 75 | 84 | 0.0 | 14.0 | 0.00 | 0.00 | 0.00 | 52 | 1008.2 |
| 20260505231516 | 76 | 134 | 1.0 | 14.0 | 0.00 | 0.00 | 0.00 | 51 | 1008.2 |
| 20260505231033 | 76 | 111 | 1.0 | 12.0 | 0.00 | 0.00 | 0.00 | 50 | 1008.1 |
| 20260505230549 | 77 | 100 | 1.0 | 9.0 | 0.00 | 0.00 | 0.00 | 49 | 1008.0 |
| 20260505230001 | 78 | 118 | 1.0 | 14.0 | 0.00 | 0.00 | 0.00 | 47 | 1008.0 |
| 20260505225502 | 78 | 88 | 3.0 | 13.0 | 0.00 | 0.00 | 0.00 | 46 | 1008.1 |
| 20260505225020 | 79 | 96 | 0.0 | 13.0 | 0.00 | 0.00 | 0.00 | 45 | 1007.9 |
| 20260505224543 | 79 | 146 | 1.0 | 11.0 | 0.00 | 0.00 | 0.00 | 44 | 1007.9 |
| 20260505224052 | 80 | 172 | 4.0 | 12.0 | 0.00 | 0.00 | 0.00 | 42 | 1007.9 |
| 20260505223503 | 80 | 178 | 2.0 | 13.0 | 0.00 | 0.00 | 0.00 | 42 | 1007.8 |
| 20260505223018 | 80 | 165 | 3.0 | 15.0 | 0.00 | 0.00 | 0.00 | 41 | 1007.9 |
| 20260505222537 | 80 | 132 | 4.0 | 19.0 | 0.00 | 0.00 | 0.00 | 41 | 1007.8 |
| 20260505222052 | 80 | 96 | 4.0 | 21.0 | 0.00 | 0.00 | 0.00 | 41 | 1007.8 |
| 20260505221558 | 80 | 68 | 1.0 | 21.0 | 0.00 | 0.00 | 0.00 | 42 | 1007.6 |
| 20260505221053 | 80 | 107 | 4.0 | 23.0 | 0.00 | 0.00 | 0.00 | 42 | 1007.7 |
| 20260505220506 | 81 | 148 | 4.0 | 23.0 | 0.00 | 0.00 | 0.00 | 41 | 1007.9 |
| 20260505220023 | 81 | 138 | 4.0 | 22.0 | 0.00 | 0.00 | 0.00 | 41 | 1007.7 |
| 20260505215538 | 81 | 198 | 4.0 | 22.0 | 0.00 | 0.00 | 0.00 | 40 | 1007.6 |
| 20260505215039 | 81 | 141 | 7.0 | 23.0 | 0.00 | 0.00 | 0.00 | 40 | 1007.6 |
| 20260505214605 | 81 | 132 | 3.0 | 22.0 | 0.00 | 0.00 | 0.00 | 41 | 1007.5 |
| 20260505214056 | 81 | 169 | 2.0 | 22.0 | 0.00 | 0.00 | 0.00 | 40 | 1007.5 |
| 20260505213505 | 82 | 157 | 4.0 | 17.0 | 0.00 | 0.00 | 0.00 | 39 | 1007.4 |
| 20260505213027 | 82 | 108 | 3.0 | 13.0 | 0.00 | 0.00 | 0.00 | 38 | 1007.5 |
| 20260505212540 | 82 | 143 | 4.0 | 12.0 | 0.00 | 0.00 | 0.00 | 38 | 1007.5 |
| 20260505212057 | 82 | 156 | 3.0 | 22.0 | 0.00 | 0.00 | 0.00 | 39 | 1007.4 |
| 20260505211631 | 82 | 153 | 4.0 | 22.0 | 0.00 | 0.00 | 0.00 | 39 | 1007.3 |
| 20260505211101 | 82 | 132 | 4.0 | 14.0 | 0.00 | 0.00 | 0.00 | 39 | 1007.2 |
| 20260505210559 | 82 | 185 | 3.0 | 17.0 | 0.00 | 0.00 | 0.00 | 38 | 1007.1 |
| 20260505210013 | 82 | 132 | 5.0 | 23.0 | 0.00 | 0.00 | 0.00 | 38 | 1007.1 |
| 20260505205531 | 82 | 190 | 3.0 | 17.0 | 0.00 | 0.00 | 0.00 | 38 | 1007.0 |
| 20260505205045 | 82 | 182 | 4.0 | 17.0 | 0.00 | 0.00 | 0.00 | 38 | 1007.0 |
| 20260505204610 | 82 | 175 | 4.0 | 24.0 | 0.00 | 0.00 | 0.00 | 39 | 1007.0 |
| 20260505204100 | 82 | 182 | 4.0 | 24.0 | 0.00 | 0.00 | 0.00 | 38 | 1007.1 |
| 20260505203603 | 83 | 149 | 2.0 | 25.0 | 0.00 | 0.00 | 0.00 | 38 | 1007.0 |
| 20260505203102 | 83 | 156 | 5.0 | 25.0 | 0.00 | 0.00 | 0.00 | 38 | 1007.0 |
| 20260505202516 | 83 | 117 | 2.0 | 22.0 | 0.00 | 0.00 | 0.00 | 39 | 1007.0 |
| 20260505202033 | 82 | 214 | 6.0 | 22.0 | 0.00 | 0.00 | 0.00 | 40 | 1007.1 |
| 20260505201548 | 82 | 106 | 5.0 | 15.0 | 0.00 | 0.00 | 0.00 | 38 | 1007.1 |
| 20260505201002 | 82 | 98 | 4.0 | 28.0 | 0.00 | 0.00 | 0.00 | 39 | 1007.2 |
| 20260505200502 | 83 | 103 | 4.0 | 18.0 | 0.00 | 0.00 | 0.00 | 39 | 1007.1 |
| 20260505200017 | 83 | 138 | 6.0 | 18.0 | 0.00 | 0.00 | 0.00 | 39 | 1007.2 |
| 20260505195532 | 83 | 77 | 3.0 | 22.0 | 0.00 | 0.00 | 0.00 | 40 | 1007.1 |
| 20260505195052 | 82 | 145 | 6.0 | 22.0 | 0.00 | 0.00 | 0.00 | 40 | 1007.2 |
| 20260505194503 | 82 | 130 | 5.0 | 18.0 | 0.00 | 0.00 | 0.00 | 40 | 1007.3 |
| 20260505194021 | 83 | 161 | 8.0 | 19.0 | 0.00 | 0.00 | 0.00 | 39 | 1007.4 |
| 20260505193534 | 83 | 119 | 4.0 | 14.0 | 0.00 | 0.00 | 0.00 | 41 | 1007.5 |
| 20260505193049 | 83 | 185 | 3.0 | 20.0 | 0.00 | 0.00 | 0.00 | 40 | 1007.4 |
| 20260505192554 | 83 | 138 | 2.0 | 20.0 | 0.00 | 0.00 | 0.00 | 42 | 1007.4 |
| 20260505192053 | 82 | 142 | 5.0 | 18.0 | 0.00 | 0.00 | 0.00 | 39 | 1007.5 |
| 20260505191506 | 82 | 115 | 4.0 | 19.0 | 0.00 | 0.00 | 0.00 | 41 | 1007.6 |
| 20260505191019 | 82 | 125 | 3.0 | 22.0 | 0.00 | 0.00 | 0.00 | 41 | 1007.6 |
| 20260505190536 | 83 | 246 | 4.0 | 22.0 | 0.00 | 0.00 | 0.00 | 42 | 1007.7 |
| 20260505190055 | 82 | 84 | 3.0 | 22.0 | 0.00 | 0.00 | 0.00 | 41 | 1007.8 |
| 20260505185503 | 82 | 109 | 3.0 | 25.0 | 0.00 | 0.00 | 0.00 | 42 | 1007.8 |
| 20260505185004 | 82 | 129 | 6.0 | 24.0 | 0.00 | 0.00 | 0.00 | 41 | 1008.1 |
| 20260505184502 | 82 | 202 | 6.0 | 23.0 | 0.00 | 0.00 | 0.00 | 40 | 1008.1 |
| 20260505184020 | 82 | 179 | 2.0 | 18.0 | 0.00 | 0.00 | 0.00 | 42 | 1008.1 |
| 20260505183534 | 83 | 183 | 4.0 | 18.0 | 0.00 | 0.00 | 0.00 | 41 | 1008.3 |
| 20260505183050 | 83 | 83 | 2.0 | 9.0 | 0.00 | 0.00 | 0.00 | 41 | 1008.0 |
| 20260505182503 | 83 | 119 | 2.0 | 11.0 | 0.00 | 0.00 | 0.00 | 41 | 1008.1 |
| 20260505182022 | 83 | 121 | 2.0 | 7.0 | 0.00 | 0.00 | 0.00 | 42 | 1008.2 |
| 20260505181549 | 82 | 162 | 1.0 | 12.0 | 0.00 | 0.00 | 0.00 | 43 | 1008.2 |
| 20260505181055 | 82 | 146 | 2.0 | 12.0 | 0.00 | 0.00 | 0.00 | 43 | 1008.4 |
| 20260505180552 | 82 | 186 | 1.0 | 14.0 | 0.00 | 0.00 | 0.00 | 43 | 1008.4 |
| 20260505180003 | 82 | 127 | 5.0 | 14.0 | 0.00 | 0.00 | 0.00 | 41 | 1008.6 |
| 20260505175520 | 82 | 238 | 3.0 | 8.0 | 0.00 | 0.00 | 0.00 | 43 | 1008.6 |
| 20260505175035 | 83 | 142 | 2.0 | 10.0 | 0.00 | 0.00 | 0.00 | 44 | 1008.6 |
| 20260505174551 | 82 | 154 | 3.0 | 10.0 | 0.00 | 0.00 | 0.00 | 46 | 1008.4 |
| 20260505174005 | 81 | 227 | 3.0 | 10.0 | 0.00 | 0.00 | 0.00 | 44 | 1008.6 |
| 20260505173502 | 82 | 159 | 1.0 | 12.0 | 0.00 | 0.00 | 0.00 | 43 | 1008.7 |
| 20260505173002 | 82 | 102 | 3.0 | 12.0 | 0.00 | 0.00 | 0.00 | 45 | 1008.9 |